www.pogodaiklimat.ru

Погода и климат >> Архив погоды >> Мексика >> Ла-Пас


ПОГОДА в Ла-Пасе

  • Прогноз погоды в Ла-Пасе
  • Монитор погоды в Ла-Пасе

АРХИВ ПОГОДЫ в Ла-Пасе

Время (UTC), дата Ветер
(напр.,м/с)
 
Видим.   Явления Облачность Т
(С)
Тd
(С)
f
(%)
Тe
(С)
Тes
(С)
Комфортность P
(гПа)
Po
(гПа)
Тmin
(С)
Tmax
(С)
R
(мм)
R24
(мм)
S
(см)
15 10.09 Ю 2 25 км 5/5 1200 м
[Sc diur, vesp]
+26.8 +24.6 88 +38 +40 очень
душно
1013.0 1010.9
18 10.09 ЮЗ 3 30 км 3/3 1200 м
[Sc diur, vesp]
+32.9 +24.8 63 +46 +56 опасность
перегрева
1012.6 1010.5 +24.6 +33.4
21 10.09 С 4 30 км 5/5 1200 м
[Sc diur, vesp]
+33.8 +25.2 61 +48 +53 опасность
перегрева
1010.7 1008.7
00 11.09 ЮЗ 3 30 км 8/8 1200 м
[Sc diur, vesp]
+34.8 +24.0 54 +47 +47 опасность
перегрева
1010.3 1008.3 +24.6 +35.8
03 11.09 Ю 3 2000 м 1/1 1200 м
[Sc diur, vesp]
+30.2 +23.2 66 +40 +40 очень
душно
1011.3 1009.3
06 11.09 ЮЗ 2 2000 м ясно +27.4 +23.6 80 +37 +37 очень
душно
1013.4 1011.3 +35.8
09 11.09 Ю 2 2000 м 8/8 1200 м
[Sc diur, vesp]
+26.0 +23.5 86 +35 +35 очень
душно
1013.3 1011.2
12 11.09 Ю 2 2000 м 9/9 1200 м
[Sc diur, vesp]
+25.6 +23.7 89 +35 +35 очень
душно
1012.7 1010.6 +25.3 +35.8
15 11.09 Ю 2 30 км 1/1 1200 м
[Sc diur, vesp]
+27.0 +23.5 81 +37 +40 очень
душно
1014.4 1012.3
18 11.09 С 1 30 км 3/1 1200 м
[Sc diur, vesp Ci fib]
+31.8 +24.7 66 +45 +62 опасность
перегрева
1013.4 1011.3 +24.6 +31.8
21 11.09 СЗ 3 30 км 4/1 1200 м
[Sc diur, vesp Ci fib]
+34.6 +24.9 57 +48 +59 опасность
перегрева
1011.2 1009.1
00 12.09 С 3 30 км 8/1 1200 м
[Sc diur, vesp Ac trans Cs]
+34.0 +25.0 59 +47 +48 опасность
перегрева
1010.0 1007.9 +24.6 +35.7
03 12.09 Ю 3 2000 м 1/1 1200 м
[Sc diur, vesp]
+31.0 +23.5 64 +42 +42 опасность
перегрева
1011.7 1009.7
06 12.09 Ю 2 2000 м ясно +27.0 +22.9 78 +36 +36 очень
душно
1012.5 1010.4 +35.7
09 12.09 ЮВ 3 2000 м ясно +25.8 +22.2 81 +34 +34 очень
душно
1011.6 1009.5
12 12.09 Ю 2 2000 м ясно +25.4 +22.3 83 +33 +33 очень
душно
1011.4 1009.3 +24.6 +35.7
15 12.09 ЮВ 2 30 км 4/0
[Ci fib]
+27.9 +22.8 74 +37 +40 очень
душно
1011.9 1009.8
18 12.09 СЗ 2 30 км 8/0
[Cs]
+34.4 +21.4 47 +42 +56 опасность
перегрева
1011.6 1009.5 +24.4 +35.0
21 12.09 СЗ 4 30 км 5/0 2000 м
[Cs]
+34.4 +23.5 53 +45 +55 опасность
перегрева
1010.3 1008.3
00 13.09 С 2 25 км 9/0 2000 м
[As trans Cs]
+33.8 +24.1 57 +46 +47 опасность
перегрева
1008.9 1006.9 +24.4 +34.9
03 13.09 СВ 2 2000 м 6/0 2000 м
[Ac trans Cs]
+31.2 +23.9 65 +43 +43 опасность
перегрева
1010.8 1008.8
06 13.09 С 1 2000 м 4/0
[Ac trans]
+29.8 +25.3 77 +44 +44 опасность
перегрева
1011.6 1009.5 +34.9
09 13.09 ЮВ 1 2000 м 1/0
[Ci fib]
+27.6 +23.8 80 +38 +38 очень
душно
1010.5 1008.4
12 13.09 ЮВ 2 2000 м 1/0
[Ci fib]
+26.3 +22.6 80 +35 +35 очень
душно
1010.2 1008.1 +26.3 +34.9
15 13.09 Ю 1 30 км 6/0
[Ci fib]
+28.0 +23.3 76 +38 +42 очень
душно
1010.9 1008.8
18 13.09 СЗ 2 30 км 1/0
[Cs]
+33.2 +24.7 61 +46 +63 опасность
перегрева
1011.3 1009.2 +25.6 +33.6
21 13.09 СЗ 5 30 км 1/1 1200 м
[Sc diur, vesp]
+35.4 +26.9 62 +53 +61 опасность
перегрева
1009.5 1007.4
00 14.09 СЗ 5 30 км 3/1 1200 м
[Sc diur, vesp Ci ing]
+33.2 +26.0 66 +49 +50 опасность
перегрева
1008.6 1006.6 +25.6 +35.9
03 14.09 З 1 2000 м 3/0 2000 м
[Ac trans]
+31.0 +27.1 80 +49 +49 опасность
перегрева
1010.5 1008.5
06 14.09 ЮВ 2 2000 м 1/0
[Ac und]
+29.4 +24.5 75 +42 +42 опасность
перегрева
1012.2 1010.2 +35.9
09 14.09 Ю 1 2000 м 8/0
[Ac und]
+28.4 +24.2 78 +40 +40 очень
душно
1011.5 1009.5
12 14.09 Ю 2 2000 м ясно +27.3 +23.3 79 +37 +37 очень
душно
1011.1 1009.0 +27.3 +35.9
15 14.09 Ю 3 30 км 4/0
[Cs]
+28.8 +23.7 74 +39 +42 очень
душно
1012.6 1010.5
18 14.09 З 2 30 км 4/1 1200 м
[Sc diur, vesp Cs]
+35.6 +24.3 52 +48 +62 опасность
перегрева
1011.8 1009.8 +26.2 +35.6
21 14.09 СВ 4 30 км 4/3 1050 м
[Cb cap Cs]
+35.8 +25.8 56 +51 +58 опасность
перегрева
1009.9 1007.9
00 15.09 ЮВ 4 30 км 8/3 1110 м
[Sc diur, vesp As trans]
+32.4 +24.6 64 +45 +46 опасность
перегрева
1010.1 1008.1 +26.2 +36.9
03 15.09 ЮЗ 3 2000 м 4/0 2000 м
[Ac trans Ci fib]
+30.9 +24.0 67 +43 +43 опасность
перегрева
1011.2 1009.1 0.0
12 15.09 ЮВ 2 2000 м ясно +26.7 +23.6 83 +36 +36 очень
душно
1011.6 1009.5 +26.7 +36.9
15 15.09 ЮВ 2 30 км ясно +28.4 +23.1 73 +38 +42 очень
душно
1012.4 1010.3
18 15.09 ЮЗ 1 30 км 1/1 1200 м
[Sc diur, vesp]
+34.6 +22.0 48 +43 +61 опасность
перегрева
1011.8 1009.7 +26.5 +35.1
21 15.09 С 4 30 км 4/4 1110 м
[Sc diur, vesp]
+36.5 +23.2 46 +46 +53 опасность
перегрева
1009.9 1007.9
00 16.09 Ю 3 30 км в посл. час дождь туман 8/5 1110 м
[St Ac lent]
+36.1 +24.0 50 +48 +48 опасность
перегрева
1009.1 1007.1 +26.5 +37.7
03 16.09 З 1 2000 м 1/0 2000 м
[Ac trans]
+32.2 +25.8 69 +47 +47 опасность
перегрева
1010.7 1008.7
06 16.09 Ю 3 2000 м ясно +29.0 +23.0 70 +39 +39 очень
душно
1012.0 1010.0 +26.5 +37.7
09 16.09 Ю 3 2000 м ясно +27.1 +24.5 86 +38 +38 очень
душно
1011.6 1009.6
12 16.09 Ю 3 2000 м ясно +26.4 +24.7 90 +37 +37 очень
душно
1011.4 1009.4 +25.6 +37.7
15 16.09 Ю 4 30 км ясно +28.2 +24.0 78 +39 +41 очень
душно
1012.4 1010.3
18 16.09 СЗ 1 30 км ясно +35.1 +23.0 50 +45 +65 опасность
перегрева
1011.7 1009.7 +25.4 +35.1
21 16.09 С 4 30 км 1/1 1200 м
[Sc diur, vesp]
+37.0 +23.3 46 +47 +57 опасность
перегрева
1009.6 1007.6
03 17.09 Ю 2 2000 м ясно +32.3 +23.5 60 +43 +43 опасность
перегрева
1009.6 1007.6
06 17.09 Ю 4 2000 м ясно +29.1 +22.8 69 +39 +39 очень
душно
1012.1 1010.1 +25.4 +37.7
09 17.09 Ю 3 2000 м ясно +27.2 +24.2 84 +38 +38 очень
душно
1011.6 1009.5

 

Местоположение метеостанции Ла-Пас (Мексика): широта 24.17 долгота -110.30 высота над уровнем моря 18 м.

В архиве по умолчанию представлена погода в Ла-Пасе за последнюю неделю. Архивные данные за месяц целиком и за предыдущие месяцы, начиная с января 2011 года, Вы можете получить, выбрав интересующий диапазон дат из раскрывающегося списка и нажав кнопку "Ввод!".


*Определитесь, кто Вы:
робот инопланетянин человек

Внимание! Время в таблицах - всемирное. Для получения местного времени необходимо прибавить поправку, которая равна -6 ч.

Смотрите также архив погоды в соседних городах и на ближайших метеорологических станциях:

Погода в Сьюдад-Конститусьоне (Мексика) (166 км)
Погода в Лорето (Мексика) (229 км)
Погода в Кульякане (Мексика) (302 км)
Погода в Чойсе (Мексика) (354 км)
Погода в Сьюдад-Обрегоне (Мексика) (361 км)
Погода в Санта-Розалии (Мексика) (397 км)
Погода в Мазатлане (Мексика) (412 км)
Погода в Гуаймасе (Мексика) (421 км)
Погода в Эмпальме (Мексика) (422 км)
Погода в Тепеуанесе (Мексика) (481 км)

Пояснения к столбцам:

Ветер - указаны скорость ветра в м/с - средняя за 10 мин, порывы в срок и между сроками (в фигурных скобках) и направление, откуда дует ветер: С - северный, СВ - северо-восточный, В - восточный, ЮВ - юго-восточный, Ю - южный, ЮЗ - юго-западный, З - западный, СЗ - северо-западный.
Видимость - горизонтальная дальность видимости в метрах или километрах. При видимости от 1 до 10 км при отсутствии осадков обычно наблюдается дымка, при ухудшении видимости до 1 км и менее - туман. В сухую погоду видимость может ухудшаться дымом, пылью или мглою.
Явления - указаны атмосферные явления, наблюдавшиеся в срок или в последний час перед сроком; фигурными скобками обозначены явления, наблюдавшиеся между сроками (за 1-3 часа до срока); квадратными скобками обозначены град или гололедные отложения с указанием их диаметра в мм.
Облачность - указаны через наклонную черту общая и нижняя облачность в баллах и высота нижней границы облаков в метрах; квадратными скобками обозначены формы облаков: Ci - перистые, Cs - перисто-слоистые, Cc - перисто-кучевые, Ac - высококучевые, As - высокослоистые, Sc - слоисто-кучевые, Ns - слоисто-дождевые, Cu - кучевые, Cb - кучево-дождевые. Подробнее классификацию облаков см. в Атласе облаков (PDF).
T - Температура воздуха - температура, измеренная на высоте 2 м над землей.
Td - Температура точки росы - температура, при понижении до которой содержащийся в воздухе водяной пар достигнет насыщения.
f - Относительная влажность воздуха - влажноcть воздуха, измеренная на высоте 2 м над землей.
Te - Эффективная температура - температура, которую ощущает одетый по сезону человек в тени. Характеристика душности погоды. При расчете учитывается влияние влажности воздуха и скорости ветра на теплоощущения человека.
Tes - Эффективная температура на солнце - температура, которую ощущает человек, с поправкой на солнечный нагрев. Характеристика знойности погоды. Зависит от высоты солнца над горизонтом, облачности и скорости ветра. Ночью, в пасмурную погоду, а также при ветре 12 м/с и более поправка равна нулю.
P - Атмосферное давление - приведенное к уровню моря атмосферное давление.
Po - Атмосферное давление - измеренное на уровне метеостанции атмосферное давление.
Tmin - Минимальная температура - минимум температуры воздуха на высоте 2 м над землей.
Tmax - Максимальная температура - максимум температуры воздуха на высоте 2 м над землей.
R - Количество осадков - Количество выпавших осадков за период времени, мм. При наведении курсора мыши на число - период времени, за который выпало указанное количество осадков.
R24 - Количество осадков - Количество выпавших осадков за 24 часа, мм.
S - Снежный покров - Высота снежного покрова, см. При наведении курсора мыши на число - состояние снежного покрова и степень покрытия местности в баллах.